Change the Weather History Date:

Sunday, January 13, 2013

  Actual Average (KCSV) Record (KCSV)
Temperature  
Mean Temperature 52 °F 36 °F  
Max Temperature 66 °F 44 °F 68 °F (1960)
Min Temperature 37 °F 27 °F 3 °F (1962)
Degree Days  
Heating Degree Days 14    
Month to date heating degree days  
Since 1 July heating degree days  
Growing Degree Days 2 (Base 50)    
Moisture  
Dew Point 57 °F    
Average Humidity 98    
Maximum Humidity 100    
Minimum Humidity 88    
Precipitation  
Precipitation 0.00 in 0.15 in 1.20 in (2013)
Month to date precipitation 1.99  
Year to date precipitation 1.99  
Sea Level Pressure  
Sea Level Pressure 29.99 in    
Wind  
Wind Speed 10 mph (SSW)    
Max Wind Speed 21 mph    
Max Gust Speed 28 mph    
Visibility 8 miles    
Events      
T = Trace of Precipitation, MM = Missing Value Source: NWS Daily Summary

Daily Weather History Graph

Daily Weather History Graph

Search for Another Location

Airport or City:

Trip Planner

Search our weather history database for the weather conditions in past years. The results will help you decide how hot, cold, wet, or windy it might be!

Date:

Astronomy

Jan. 13, 2013 Rise Set
Actual Time 6:52 AM CST 4:49 PM CST
Civil Twilight 6:24 AM CST 5:17 PM CST
Nautical Twilight 5:52 AM CST 5:49 PM CST
Astronomical Twilight 5:22 AM CST 6:20 PM CST
Moon 7:55 AM CST (1/13) 7:21 PM CST (1/13)
Length of Visible Light 10h 53m
Length of Day
9h 57m
Waxing Crescent, 5% of the Moon is Illuminated
Jan 13
Waxing Crescent
Jan 18
First Quarter
Jan 26
Full
Feb 3
Last Quarter
Feb 10
New

Hourly Weather History & Observations

Time (CST) Temp. Windchill Dew Point Humidity Pressure Visibility Wind Dir Wind Speed Gust Speed Precip Events Conditions
12:15 AM 64.4 °F - 62.6 °F 94% 29.92 in 10.0 mi South 12.7 mph - N/A   Overcast
12:35 AM 64.4 °F - 62.6 °F 94% 29.92 in 10.0 mi South 11.5 mph - N/A   Overcast
12:55 AM 64.4 °F - 62.6 °F 94% 29.91 in 10.0 mi South 10.4 mph - N/A   Mostly Cloudy
1:15 AM 64.4 °F - 62.6 °F 94% 29.92 in 10.0 mi South 9.2 mph - N/A   Mostly Cloudy
1:35 AM 64.4 °F - 62.6 °F 94% 29.92 in 10.0 mi South 12.7 mph - N/A   Overcast
1:55 AM 64.4 °F - 62.6 °F 94% 29.91 in 10.0 mi South 10.4 mph 23.0 mph N/A   Scattered Clouds
2:15 AM 64.4 °F - 62.6 °F 94% 29.90 in 10.0 mi South 12.7 mph 25.3 mph N/A   Partly Cloudy
2:35 AM 64.4 °F - 62.6 °F 94% 29.91 in 10.0 mi South 10.4 mph - N/A   Clear
2:55 AM 64.4 °F - 62.6 °F 94% 29.93 in 10.0 mi SSW 16.1 mph - N/A   Clear
3:15 AM 64.4 °F - 62.6 °F 94% 29.94 in 10.0 mi SW 15.0 mph - N/A   Mostly Cloudy
3:35 AM 64.4 °F - 60.8 °F 88% 29.94 in 10.0 mi SSW 12.7 mph - N/A   Mostly Cloudy
3:55 AM 64.4 °F - 60.8 °F 88% 29.94 in 10.0 mi SSW 11.5 mph - N/A   Partly Cloudy
4:15 AM 64.4 °F - 60.8 °F 88% 29.94 in 10.0 mi SSW 10.4 mph - N/A   Scattered Clouds
4:35 AM 64.4 °F - 60.8 °F 88% 29.94 in 10.0 mi South 8.1 mph - N/A   Overcast
4:55 AM 64.4 °F - 62.6 °F 94% 29.95 in 10.0 mi SSW 9.2 mph - N/A   Overcast
5:15 AM 64.4 °F - 62.6 °F 94% 29.95 in 10.0 mi South 9.2 mph - N/A   Unknown
5:35 AM 64.4 °F - 62.6 °F 94% 29.96 in 10.0 mi South 10.4 mph - N/A   Overcast
5:55 AM 64.4 °F - 62.6 °F 94% 29.97 in 10.0 mi South 8.1 mph - N/A   Overcast
6:15 AM 64.4 °F - 62.6 °F 94% 29.98 in 10.0 mi SSW 11.5 mph - N/A   Overcast
6:35 AM 64.4 °F - 62.6 °F 94% 29.98 in 10.0 mi South 9.2 mph - N/A   Overcast
6:55 AM 64.4 °F - 62.6 °F 94% 29.98 in 10.0 mi South 8.1 mph - N/A   Overcast
7:15 AM 62.6 °F - 62.6 °F 100% 29.99 in 10.0 mi South 8.1 mph - N/A   Overcast
7:35 AM 62.6 °F - 62.6 °F 100% 29.99 in 10.0 mi South 10.4 mph - N/A   Overcast
7:55 AM 62.6 °F - 62.6 °F 100% 29.98 in 8.0 mi South 8.1 mph - N/A   Overcast
8:15 AM 60.8 °F - 60.8 °F 100% 29.99 in 2.5 mi South 8.1 mph - N/A   Overcast
8:35 AM 60.8 °F - 60.8 °F 100% 29.99 in 4.0 mi South 6.9 mph - N/A   Overcast
8:55 AM 60.8 °F - 60.8 °F 100% 29.99 in 7.0 mi South 5.8 mph - N/A   Mostly Cloudy
9:15 AM 60.8 °F - 60.8 °F 100% 29.99 in 9.0 mi South 5.8 mph - N/A   Mostly Cloudy
9:35 AM 60.8 °F - 60.8 °F 100% 30.01 in 10.0 mi Variable 4.6 mph - N/A   Mostly Cloudy
9:55 AM 60.8 °F - 60.8 °F 100% 30.00 in 5.0 mi WNW 5.8 mph - N/A   Mostly Cloudy
10:15 AM 60.8 °F - 60.8 °F 100% 29.99 in 4.0 mi Calm Calm - N/A   Overcast
10:35 AM 60.8 °F - 59.0 °F 94% 29.98 in 8.0 mi East 3.5 mph - N/A   Mostly Cloudy
10:55 AM 60.8 °F - 60.8 °F 100% 29.97 in 10.0 mi Calm Calm - N/A   Overcast
11:35 AM 60.8 °F - 60.8 °F 100% 29.94 in 10.0 mi ESE 4.6 mph - N/A   Overcast
11:55 AM 62.6 °F - 62.6 °F 100% 29.92 in 10.0 mi South 4.6 mph - N/A   Overcast
12:15 PM 64.4 °F - 64.4 °F 100% 29.92 in 10.0 mi South 8.1 mph - N/A   Overcast
12:35 PM 64.4 °F - 64.4 °F 100% 29.91 in 10.0 mi South 6.9 mph - N/A   Unknown
12:55 PM 66.2 °F - 64.4 °F 94% 29.91 in 10.0 mi SSW 9.2 mph - N/A   Unknown
1:15 PM 64.4 °F - 64.4 °F 100% 29.90 in 10.0 mi South 9.2 mph - N/A   Unknown
1:35 PM 64.4 °F - 64.4 °F 100% 29.90 in 10.0 mi South 8.1 mph - N/A   Unknown
1:55 PM 64.4 °F - 64.4 °F 100% 29.90 in 10.0 mi South 8.1 mph - N/A   Overcast
2:35 PM 64.4 °F - 64.4 °F 100% 29.90 in 10.0 mi South 8.1 mph - N/A   Overcast
2:55 PM 66.2 °F - 66.2 °F 100% 29.90 in 10.0 mi South 9.2 mph - N/A   Overcast
3:15 PM 66.2 °F - 66.2 °F 100% 29.90 in 10.0 mi South 11.5 mph - N/A   Mostly Cloudy
3:35 PM 66.2 °F - 66.2 °F 100% 29.91 in 10.0 mi SSW 8.1 mph - N/A   Unknown
3:55 PM 66.2 °F - 66.2 °F 100% 29.91 in 10.0 mi SSW 12.7 mph - N/A   Overcast
4:15 PM 64.4 °F - 64.4 °F 100% 29.91 in 4.0 mi SSW 8.1 mph - N/A   Mostly Cloudy
4:35 PM 64.4 °F - 64.4 °F 100% 29.92 in 10.0 mi South 8.1 mph - N/A   Mostly Cloudy
4:55 PM 64.4 °F - 64.4 °F 100% 29.92 in 5.0 mi South 10.4 mph - N/A   Overcast
5:15 PM 62.6 °F - 62.6 °F 100% 29.97 in 2.5 mi WSW 20.7 mph 26.5 mph N/A   Overcast
5:35 PM 60.8 °F - 60.8 °F 100% 29.95 in 5.0 mi WSW 6.9 mph - N/A   Unknown
5:55 PM 60.8 °F - 60.8 °F 100% 29.96 in 4.0 mi SW 5.8 mph - N/A   Overcast
6:15 PM 60.8 °F - 60.8 °F 100% 29.97 in 4.0 mi SW 9.2 mph - N/A   Overcast
6:35 PM 55.4 °F - 55.4 °F 100% 30.01 in 4.0 mi NW 20.7 mph 27.6 mph N/A   Overcast
6:55 PM 46.4 °F 40.4 °F 46.4 °F 100% 30.04 in 3.0 mi NW 13.8 mph - N/A   Overcast
7:15 PM 44.6 °F 40.7 °F 44.6 °F 100% 30.06 in 4.0 mi Variable 6.9 mph - N/A   Overcast
7:35 PM 44.6 °F 40.2 °F 44.6 °F 100% 30.08 in 4.0 mi NW 8.1 mph - N/A   Overcast
7:55 PM 42.8 °F 38.0 °F 42.8 °F 100% 30.09 in 4.0 mi NNW 8.1 mph - N/A   Overcast
8:15 PM 41.0 °F 35.2 °F 41.0 °F 100% 30.11 in 5.0 mi NW 9.2 mph - N/A   Overcast
8:35 PM 39.2 °F 34.2 °F 39.2 °F 100% 30.12 in 7.0 mi NW 6.9 mph - N/A   Overcast
8:55 PM 39.2 °F 32.5 °F 39.2 °F 100% 30.12 in 10.0 mi NNW 10.4 mph - N/A   Overcast
9:15 PM 37.4 °F 30.3 °F 37.4 °F 100% 30.13 in 10.0 mi NNW 10.4 mph - N/A   Overcast
9:35 PM 37.4 °F 31.4 °F 37.4 °F 100% 30.15 in 9.0 mi North 8.1 mph - N/A   Overcast
9:55 PM 37.4 °F 32.1 °F 37.4 °F 100% 30.15 in 10.0 mi North 6.9 mph - N/A   Overcast
10:15 PM 37.4 °F 34.9 °F 37.4 °F 100% 30.16 in 10.0 mi North 3.5 mph - N/A   Overcast
10:35 PM 37.4 °F 34.9 °F 37.4 °F 100% 30.16 in 10.0 mi North 3.5 mph - N/A   Overcast
10:55 PM 37.4 °F - 37.4 °F 100% 30.16 in 10.0 mi Calm Calm - N/A   Overcast
11:15 PM 37.4 °F 34.9 °F 37.4 °F 100% 30.17 in 10.0 mi North 3.5 mph - N/A   Overcast
11:35 PM 37.4 °F 34.9 °F 37.4 °F 100% 30.17 in 10.0 mi North 3.5 mph - N/A   Overcast
11:55 PM 37.4 °F 32.1 °F 37.4 °F 100% 30.17 in 10.0 mi North 6.9 mph - N/A   Overcast